TIMESTAMP,CO2_1_1_1,H2O_1_1_1,TAU_1_1_1,TAU_SSITC_TEST_1_1_1,H_1_1_1,H_SSITC_TEST_1_1_1,LE_1_1_1,LE_SSITC_TEST_1_1_1,FC_1_1_1,FC_SSITC_TEST_1_1_1,WD_0_0_1,WS_0_0_1,WS_MAX_0_0_1,U_SIGMA_0_0_1,V_SIGMA_0_0_1,W_SIGMA_0_0_1,USTAR_0_0_1,MO_LENGTH_0_0_1,ZL_0_0_1,FETCH_MAX_0_0_1,FETCH_70_0_0_1,FETCH_80_0_0_1,FETCH_90_0_0_1,PA_0_0_1,RH_0_0_1,TA_0_0_1,VPD_0_0_1,T_SONIC_0_0_1,T_SONIC_SIGMA_0_0_1
[yyyymmddHHMMSS],[mmolCO2 mol-1],[mmolH2O mol-1],[kg m-1 s-2],[#],[W m-2],[#],[W m-2],[#],[umolCO2 m-2 s-1],[#],[Decimal degrees],[m s-1],[m s-1],[m s-1],[m s-1],[m s-1],[m s-1],[m],[#],[m],[m],[m],[m],[kPa],[%],[deg C],[hPa],[deg C],[deg C]
20220710003000,401.28417142780103,14.827601052624990,4.3943691456380003E-002,1,-2.5553223068779882,2,34.779544741988275,1,-3.0720089008867064,0,226.65014941851013,1.0793755135570811,3.7076241353573094,0.85931682386572716,0.49029407461580915,0.30327079551325864,0.19960973899095322,260.64041611214310,7.2897366737724442E-002,51.922297356963647,363.00000000000000,616.00000000000000,1450.0000000000000,94.316972508832052,49.609999999999999,23.109655172413795,14.208634900673824,23.518834808403881,0.17486730025982450
20220710010000,401.73789751607637,15.003542933239242,3.6597603392464387E-002,1,2.2249833887679600,2,4.6136514956084893,1,-0.60861765643190158,1,220.88304622308726,1.5517972260266590,2.3658506423666861,0.17942481109286737,0.39324574479875696,0.12182056648914463,0.18198058699863642,-226.83377987945087,-8.3761774856008706E-002,125.62292331690533,510.00000000000000,750.00000000000000,1373.0000000000000,94.320151878906259,52.066333333333333,22.507333333333349,13.031621366300763,23.201125460306798,8.0391646061929431E-002
20220710013000,402.67045504548730,15.367757694394200,1.4303860314486662E-002,0,-12.549152797015543,1,15.229356055121631,1,0.52393709750059836,1,205.89087645453333,1.7473238725607319,2.7040699262661878,0.29627981501322709,0.24230849209146588,0.17983003707910838,0.11365660774178046,9.7974821985330536,1.9392737455389111,335.65371873798352,2936.0000000000000,5302.0000000000000,-9999.,94.309606124458242,55.509666666666668,21.847666666666669,11.619299730030905,22.586200611478944,0.28624890019455634
20220710020000,402.60394521745673,15.549111863796263,2.7751362873324206E-002,1,-11.474626018968502,1,14.360158190766526,0,0.72996066640893820,0,217.26321036409965,2.0458653143442320,3.2652973189981740,0.32358136091545064,0.25999142367949329,0.19668174439841463,0.15821874901181271,28.906754567005098,0.65728582418197445,227.52155539757408,2229.0000000000000,4157.0000000000000,-9999.,94.312435531032989,57.395000000000003,21.493666666666684,10.888737719171077,22.324915838453592,0.38068279450342807
20220710023000,405.28206164569508,15.696321953788512,2.8520256607454116E-002,0,-20.135354084284963,0,4.1893269426276127,1,1.7070368686184518,0,202.46215670145659,1.8543471017591895,3.3791139179562815,0.41310534351186778,0.33453366888302771,0.25219131126549788,0.16018083648983258,17.095077433407116,1.1114310580933839,194.17661969931262,1742.0000000000000,3170.0000000000000,8424.0000000000000,94.321966945095483,60.768999999999998,20.718333333333305,9.5603659148373570,21.484871420966329,0.30271762384691298
20220710030000,408.46577821187765,16.136234939322957,5.7184908930005218E-002,0,-46.205258496103667,0,13.190972671138468,1,8.4698139839636148,0,206.31018680410321,2.0172966530218650,4.4163861878851458,0.48984999627593523,0.43137020862928999,0.34158199927771937,0.22657392875243162,21.082690942448210,0.90121322993665443,90.162691405765813,164.84615580528023,197.27874620325974,246.96958029884257,94.310658006293409,65.273333333333341,20.006000000000029,8.0985407079097307,20.822935667250022,0.39040092895143130
20220710033000,414.04017817374222,16.439772830290227,9.0426627353653519E-002,0,-53.697868308121507,0,8.1752890087567902,0,15.611908983304044,0,209.01407865153419,2.1171956313375375,4.4530107551379414,0.58236474518083781,0.49643668840915423,0.39471079747977761,0.28456616928167500,35.937786383869685,0.52869143906225569,96.378088470800009,176.20988393938501,210.87822644312041,263.99451578611655,94.297098865017375,69.861333333333334,19.209999999999980,6.6895636133982954,20.054129258049954,0.39063726911829100
20220710040000,414.82096247349409,16.511948877229688,7.3981698827978462E-002,0,-40.137323025218421,0,8.1497867441741647,2,7.2811217792925591,0,222.42535809737697,2.1323581474044566,4.3423008071519309,0.54488785423420982,0.47628616661165696,0.34132116180694111,0.25708794376597144,35.457173717097774,0.53585771250679315,99.813594605028314,182.49108485123776,218.39521969351074,273.40489933673672,94.312066043402780,73.109666666666669,18.555000000000007,5.7293249575902312,19.459077229817694,0.31134364003848003
20220710043000,416.85982736146531,16.838302428179556,8.1585526767441172E-002,0,-39.720428651625177,0,-8.2517687291653807,0,7.1291435200870872,0,217.43254727160198,2.2684144218006623,4.2579500707086382,0.56030335471720816,0.43147754457460080,0.34710374450964393,0.26986245758943173,41.436789760777515,0.45852972949136794,102.37677335833810,187.17739309622289,224.00353376293140,280.42584304489390,94.294847878038198,76.128000000000000,18.218999999999994,4.9802040190074379,19.143914457533128,0.33470981586112969
20220710050000,417.93468351452117,17.110660394481844,6.6592828344712848E-002,0,-31.102305150583000,0,-6.3069797042666744,0,4.8124327322156777,0,221.42454321084551,2.3279878612574292,4.5132812309391142,0.53129702625597774,0.40510866792508815,0.31758846849016026,0.24369421494071364,38.964945009853032,0.48761778042277454,101.30696283837017,185.22143826715615,221.66275539037235,277.49546628931637,94.276814229889013,79.114999999999995,17.858999999999980,4.2595507473898486,18.782554136152157,0.28649090352405954
20220710053000,420.87989359731989,17.286741606294243,8.2008119654289113E-002,0,-28.963239385261549,0,-8.8450379352349984,0,7.6078904418408895,0,216.35033518086075,2.2387613900077148,4.4788528143255659,0.59385745952801472,0.48957184260951053,0.36429140957289841,0.27030700700211180,57.090824471004133,0.33280304104996616,98.623769730452707,180.31570550533300,215.79184621610017,270.14578467055378,94.246510737357610,81.863333333333330,17.474666666666678,3.6104634007144707,18.427907818123629,0.29872143711568777
20220710060000,420.63369936272517,17.418476546820688,6.6699202136519448E-002,0,-31.333749251824287,0,-6.0179387717180077,0,8.6612192850680572,0,223.17931627220293,2.2296231236713990,4.4907444638677534,0.58085399120213033,0.43575735197976462,0.33199748716103034,0.24367544798376040,38.660081465768101,0.49146300989623398,97.767943712106060,178.75098259208639,213.91927252475227,267.80154461666393,94.243564245876740,83.856666666666669,17.213666666666654,3.1610689525297881,18.218762032402935,0.27912122509523579
20220710063000,421.23601849034435,17.524741674238683,8.2837550436923729E-002,0,-36.043287744938489,0,-6.9652431799224033,0,6.5434294932001498,0,224.74006917675598,2.4445316461574249,4.7222051082754630,0.61094216039151383,0.53342301414885873,0.39126760970959118,0.27156755746225675,46.511922019180027,0.40849741690238062,93.492783722953448,170.93462663957004,204.56509077475590,256.09121907325516,94.215527640407998,84.776666666666671,17.132666666666694,2.9656780934942208,18.120094952053535,0.28267161432165572
20220710070000,421.14370183618820,17.561162670981410,8.7041384912719399E-002,0,-34.117911201361736,0,-5.1752665621701128,0,9.4926839523764439,0,231.48980830854984,2.4556603830513288,4.7519367499165455,0.66364520568090013,0.52055450899342781,0.39748936737358820,0.27830910755963784,52.894965069944277,0.35920243022896120,94.149154009650275,172.13468086221786,206.00124918114020,257.88911897729218,94.232951183487188,85.420000000000002,17.048999999999978,2.8253385457898070,18.020537774904767,0.25376788187544219
20220710073000,421.69695884195073,17.486983603109906,0.11487788248006428,0,-37.705808560917660,0,-6.4309608843960246,0,7.4162899704833176,0,226.51887584654622,2.3720636495294589,4.5644527130324235,0.63350553586773883,0.49315980784313834,0.38485953203361029,0.31962387858123931,72.493250085351946,0.26209336700492558,107.92560097901210,197.32241969461671,236.14453952526139,295.62494155517692,94.227171276692715,86.146666666666661,16.847666666666669,2.6504727425029500,17.805768488566173,0.26361686090006176
20220710080000,423.32180949501731,17.351930185756338,9.0826361856731500E-002,0,-43.826894663857928,0,-6.7092090717177975,0,10.504413662407048,0,222.17357644749251,2.2543365647634572,4.6172755812015023,0.61968695180875388,0.50554443462463849,0.39789063790353629,0.28407036054389068,43.776651026760227,0.43402132311093167,95.627909376181890,174.83831729707231,209.23681147528046,261.93965902376669,94.205969541883675,87.209999999999994,16.528999999999996,2.3979877074393587,17.468994157579232,0.26809596719577772
20220710083000,425.92681084963567,17.227240713379420,8.7603434626067178E-002,0,-31.837736723037448,1,4.2680304286133151,2,9.6797864277568024,1,209.39724680363480,1.7858156646197545,4.6372030844002303,0.57055398242398248,0.64558265961961703,0.39379339772332034,0.27887509592217086,57.005790968773695,0.33329947145909633,95.009698846760301,173.70803128115398,207.88414779330276,260.24628460684227,94.187208643012156,88.076666666666668,16.257333333333349,2.1971562512486869,17.175192006429086,0.29923221412027362
20220710090000,425.27003493785747,17.100761257122294,6.0458036734602420E-002,0,-39.199475117064381,0,-8.5843908428854458,1,10.828116039947036,0,192.44002880909881,1.7457446711372069,3.9811075914003156,0.55034012064567706,0.50060056138298659,0.36658026061993737,0.23162682122215292,26.523608494545648,0.71634295174833340,86.726279723595866,158.56329926298042,189.75977158607824,237.55671631211735,94.164566626953118,88.373333333333335,16.085333333333324,2.1191096067826130,16.991400207519519,0.28375416450136276
20220710093000,432.83190499563631,17.281812908947682,6.6329771380573152E-002,0,-30.552864016724133,0,-2.4970064295488563,0,5.8067524395318246,0,189.90364017057868,1.8544066182525247,5.6066648516756903,0.58129744055207999,0.51773415196230810,0.39147815370252065,0.24247241086612834,39.032977481487542,0.48676788771779633,85.352989935728132,156.05248754244468,186.75497122685826,233.79506282495566,94.146212870330814,91.686666666666667,15.671333333333337,1.4756305699306314,16.553738895583137,0.28297531675135856
20220710100000,435.16259735427468,17.080888459741772,0.20230952460291385,0,-63.372347656798667,0,-30.664850665324842,1,16.103951662324725,1,208.87171667024919,2.1221003643051075,5.4459658492185934,0.88061125098565862,0.72829388075585710,0.56891871605388600,0.42331376907657986,100.14160486436795,0.18973133120578256,98.842708793518455,180.71599593964993,216.27089163037408,270.74549268362790,94.160505974826393,91.443333333333328,15.532666666666671,1.5053874277240176,16.405118271721733,0.26725971022424111
20220710103000,430.11108017040857,16.438421217048319,0.17892806779869744,0,-61.153265586409738,0,2.6755685138160792,1,14.463229468009439,0,214.40348439229189,2.3916792023643660,6.1802095370546111,0.86716778353593771,0.69921894643720328,0.54812215067115366,0.39814863649248172,86.348329672129552,0.22003899869452351,96.959240191803602,177.27241463421447,212.14980431070526,265.58638038541386,94.178295844401049,86.933333333333337,15.726666666666688,2.3275868313523369,16.516519612630191,0.22835385656816873
20220710110000,430.51652756100015,16.127917139508266,7.3188919667112620E-002,0,-30.741092989971328,0,3.7771683475066227,1,7.2621919424493209,0,207.55935534188126,1.8987988129619084,5.7286895776964082,0.68222583989227015,0.51001004067424693,0.38636162686263764,0.25456003045871878,44.895696161384535,0.42320314917718521,89.679232408931270,163.96223856772809,196.22092302552235,245.64531120618003,94.190479404079866,85.920000000000002,15.613999999999976,2.4900619761811460,16.378336085001649,0.26609314890986763
20220710113000,428.22985566565541,15.816678121571393,0.16477490983148449,0,-57.253942840818674,0,4.4205036192186711,1,10.628934007264714,0,206.56784776783149,2.4557084947368093,6.3055558208377809,0.81140622866348244,0.72689244880398274,0.58226193324729425,0.38206001764755015,81.471630437909212,0.23321001307909497,89.385166722092961,163.42459270474717,195.57749824420364,244.83981973153109,94.156086872985796,83.766666666666666,15.700333333333333,2.8867995531581050,16.436445559089236,0.23524270328659838
20220710120000,425.92972285104332,15.697697993508699,0.12430959544587927,0,-35.253479074083266,0,6.6936599756110553,0,4.8597372055307488,0,206.02080488029031,2.0577439610206607,5.3330857483363880,0.68799553335057451,0.64969135753782425,0.49521369932752168,0.33192654264997534,86.755102115769645,0.21900729221257331,90.918940358423015,166.22882008397031,198.93344220746755,249.04106334273985,94.144598304904520,82.513333333333335,15.815999999999974,3.1327861862137252,16.516276784261095,0.16656221035705934
20220710123000,421.92366410581081,15.933969114863926,0.15663107282013577,0,-9.6401505018276996,2,35.551459460253795,1,-4.6508095891436962,2,213.47138974112613,2.3000012804184693,6.3240863769875251,0.85439163941148799,0.74587503870187455,0.55250069468445717,0.37289217174413097,449.81752229240857,4.2239350533012032E-002,91.422954037928861,167.15031783702540,200.03623966406440,250.42163489569236,94.137880735677086,81.503333333333330,16.241666666666674,3.4050458685226386,16.987678514268737,0.29363976002340236
20220710130000,419.02004150200696,16.247065756907890,0.25116932365109274,0,-11.599877248235890,0,36.257967444079277,0,-3.4303534001605582,0,227.23269201016319,2.4542371539340446,6.2455903928979586,0.99018524676342290,0.75866434717237674,0.62999304251298927,0.47281126336405632,762.09370565250322,2.4931317315804669E-002,99.525999623933572,181.96526950208184,217.76595301568514,272.61713212759946,94.137340685346629,79.429666666666662,16.952999999999975,3.9619768390235413,17.697708525873566,0.19922311320055089
20220710133000,416.20419991411171,16.570538581995390,0.42513492334658787,0,-1.6664108628075336,1,57.654847340181476,0,-6.3573321593794256,0,225.05988455340341,2.6834709121787710,7.8119969635251110,1.1918846287857550,0.83163125213975297,0.69195376310547907,0.61586066367281422,11721.558342047780,1.6209448816922973E-003,114.07204095248478,208.56007227261068,249.59313952460374,312.46099288542263,94.104705635835160,78.205333333333328,17.504666666666651,4.3468865318448096,18.246211533743349,0.14341376701424619
20220710140000,413.69873166748567,16.765952817462814,0.43290886084698060,0,10.357876082715009,1,66.129049356028929,0,-5.5703837241068168,0,225.55517756705598,2.7088735735163549,7.9525315580369691,1.2036557921417133,0.82698106888426504,0.73513371726076815,0.62186812321078366,-1941.5078661181326,-9.7862080971058661E-003,109.52681592603562,200.24995129909033,239.64804715381160,300.01091736478264,94.097795141276052,77.476333333333329,17.838000000000022,4.5876914233144435,18.604765189276748,0.24493523399087017
20220710143000,410.78975338932639,17.136961033733225,0.59439960060590502,0,88.646877387378183,0,155.61253646720840,0,-8.7135417455813649,0,225.77969366405850,3.4016691681418840,8.7013867468001891,1.4938285099947997,1.2133947719055234,0.94224137645117845,0.73105850225481750,-368.43945363597174,-5.1568852934985948E-002,102.20846561260157,186.86967285801418,223.63527123064108,279.96482205408819,94.041755725043387,71.231999999999999,19.521666666666647,6.5103681653484049,20.245309762742863,0.58027816048079905
20220710150000,406.69213844073312,17.064869470389027,0.63952073238976648,0,141.18884562614818,0,207.85880833415018,0,-13.085985226951102,0,227.61264115151880,3.3514821838344759,8.7357283290520780,1.5090684068761286,1.2745561539145949,0.98192056499475122,0.76102083332985770,-260.77925356309504,-7.2858556577634292E-002,102.12005779346963,186.70803516841326,223.44183219903070,279.72265934082259,93.950533059678833,63.306666666666665,21.348999999999990,9.2951503262635509,21.973525542365110,0.52891627847190392
20220710153000,404.56167408990223,16.649234155610753,0.87632937213813966,0,92.572234777713760,0,137.16189161300704,0,-6.2149141594413511,1,245.08676717433400,4.0790431430486169,11.302920979132953,1.7326900783772221,1.5666061093056520,1.1535077315457058,0.89252965690469976,-641.20681128928334,-2.9631625343773938E-002,101.98507428407724,186.46124226246172,223.14648412239441,279.35291859615165,93.874605547539161,58.337666666666671,22.270666666666671,11.164863051764565,22.728999466219648,0.34756364590444933
20220710160000,400.56258896221186,16.907757485017623,0.97669548866472589,0,174.34795770232674,0,251.76501082109849,0,-12.353112680848939,0,242.36115276582791,4.6885089268204396,13.207800304849059,2.0650488993938669,1.7070732134645588,1.1462210797637555,0.94371222176986480,-402.27154815125829,-4.7231776861474187E-002,107.17953055280682,195.95836500855526,234.51211445047380,293.58133907214909,93.808130994140612,56.824333333333335,22.946000000000026,12.054457646264026,23.394098503960549,0.36658827791458309
20220710163000,399.28424365676278,16.810812951294476,0.96167533384625559,0,149.29703676396389,0,204.57530350804333,0,-12.434626509946499,0,249.25751527805653,4.7909458258478264,12.284033411157262,2.0347083438903568,1.7173507672448294,1.2398107945372852,0.93739802242352843,-460.23796396591109,-4.1282991599118260E-002,100.11745369404208,183.04663617684082,219.06007274046922,274.23721645719615,93.761680670355901,54.863000000000000,23.423999999999978,12.971306379146025,23.839404728359682,0.38074375742871147
20220710170000,399.74442910454917,16.742242714201399,0.99890301622461053,0,146.49356701176416,0,240.42104433242457,0,-13.702286606491240,0,240.44474168864261,4.5495679534218487,10.766153457552308,1.8218612088871988,1.6442059221452179,1.1118132606398754,0.95596227110527487,-497.39210523209533,-3.8199239192053792E-002,110.96397913674859,202.87754400797056,242.79260452979935,303.94753005276658,93.742175740666141,53.604333333333336,23.738000000000000,13.587597158495583,24.181092519530750,0.44465773599242442
20220710173000,400.07593861867940,16.700752325949022,1.1059905522535989,0,169.40999229944592,0,205.89412677366184,0,-12.374929985708627,0,237.90440935456303,5.0248063714333373,12.067502530339524,1.9574357088955319,1.5815198508087689,1.1888423954121972,1.0068328921354344,-502.27739859548257,-3.7827702486971676E-002,109.62797410866739,200.43490071968881,239.86938437352686,300.28800529903617,93.686084344618052,52.240666666666669,24.115666666666641,14.307941238328402,24.531288257174992,0.39675035269496645
20220710180000,399.28650711939542,17.096279929639852,0.97256789007844346,0,151.68843021844313,0,270.93522076339809,0,-12.051209011537059,0,243.30693319450103,4.2692134581116532,10.898397139426969,1.8105777439724526,1.8597480562240951,1.1594656587651591,0.94529567485974042,-464.20970508930708,-4.0929777623552016E-002,106.34148588782965,194.42615208033985,232.67844690804222,291.28580489993095,93.661099590711814,51.588000000000001,24.712333333333333,15.030785774776122,25.205169262356264,0.37954501727976592
20220710183000,398.90478158301249,17.295687286554514,0.93523233509982573,0,182.81901327601520,0,310.26459609790385,0,-19.932357485834075,0,249.06857055758783,3.6856271847609392,10.135456824757284,1.7799939919554979,1.4629125240940062,1.0772221404394602,0.92781269713057157,-364.07599007119495,-5.2186907453810827E-002,111.11659694720714,203.15657804044292,243.12653700038246,304.36557388006815,93.615778988498263,51.018999999999998,25.084666666666692,15.548878312011130,25.539324483235703,0.39606542578513848
20220710190000,398.55472671871553,17.415965273235635,1.1043108243496889,0,156.95407403338137,0,269.54960719500764,0,-17.390753535772429,0,246.33508444190676,4.1928598569403457,10.338363379752158,1.8108033348195192,1.4532587256498424,1.1335620835886988,1.0084905309596948,-544.52814441257624,-3.4892594983307504E-002,114.03446018238601,208.49136263909827,249.51091164197464,312.35805333388652,93.596150311631959,51.069333333333333,25.180999999999983,15.622227571202405,25.660064380221911,0.37559953933202000
20220710193000,398.57769239795317,17.733032162182813,0.71924706477820588,0,-11.908080214257792,2,233.97443237592245,0,-5.0711058761247223,2,249.82404578747895,4.1298883422887611,13.091992702751956,2.0201700801808644,1.5973480465082681,1.0456923440875157,0.81367521472823678,3771.4879802966075,5.0377994306920080E-003,102.44543876970106,187.30293536790407,224.15377579819022,280.61392824466947,93.656551408055762,52.033666666666669,25.180666666666639,15.314038478960297,25.749684533395623,0.43508871839365698
20220710200000,397.56781338674620,18.199424408139286,0.60903316716641631,0,67.381496122688873,1,18.940041653782874,2,-3.4093605688765916,2,232.67634086432460,3.4529049209674527,10.081377351805628,1.7062275124620963,1.9118225371276463,1.0305393818622013,0.74800999262981915,-517.84990481882983,-3.6690167987280337E-002,96.901197746678307,177.16629453283704,212.02280565280856,265.42739313593614,93.654455150173604,55.488999999999997,24.537666666666667,13.676123907393459,25.293510470072476,0.23424659738261089
20220710203000,398.60497963723179,18.519731514629825,0.45319343056854394,0,-48.247644602170844,0,96.747928487484046,0,-1.4752122557287501,0,162.09670808408413,3.5631348611366249,8.6985587817078205,1.3576073525496306,1.4264628174527609,0.88113447966919467,0.64499557753793990,462.46883907390969,4.1083849104400966E-002,97.558818603003758,178.36863519561473,213.46170034406333,267.22871854393162,93.309636374565954,61.075666666666663,23.170666666666648,11.016170004239923,24.018843697442094,0.39849589282715159
20220710210000,399.24090150616865,19.208490381580464,0.54385613272587163,0,-43.713838262931539,1,115.59122334738764,1,4.1395666118422474,1,196.68987557745720,3.9157027995414340,10.395906129099226,1.5805307013919379,1.3751933932809695,1.0495391489532668,0.70594021993965128,669.11684388501590,2.8395638480242843E-002,91.173856736283156,166.69488852410743,199.49120709477114,249.73931879485468,93.274600993923613,66.143000000000001,22.451666666666654,9.1735556140326100,23.404538789537241,0.13724084101704515
20220710213000,399.01766402186070,19.581447040826404,0.58499734127355174,0,-2.4483022631773439,2,79.396461309321595,0,-2.7884759359104336,0,211.78194931958944,3.3093115004113436,10.366558698658368,1.5433638773435625,1.1850139442898220,0.96715801093868692,0.73160949891004268,13302.170840506980,1.4283382936371805E-003,100.15679563836994,183.11856579854177,219.14615412656352,274.34498013779734,93.306947468750010,69.027000000000001,22.072000000000003,8.2004845953590113,23.096938912285736,0.16805871687671600
20220710220000,396.57820405868466,19.851171913184530,0.84353267874343874,0,21.030929615978650,0,140.11249700148150,0,-9.4839625240647845,0,211.06423512397885,3.6583252662348547,11.422755449573208,1.8232865461243173,1.4704460344241008,1.1355990881726958,0.87994846210326405,-2694.2382466946351,-7.0520860667425082E-003,102.10350740235191,186.67777577497355,223.40561943344031,279.67732525546649,93.290219574218767,66.344333333333338,22.947000000000003,9.3970839831908712,23.914424110412597,0.14579806365000672
20220710223000,394.77320089158496,20.145496548527177,0.92913889816087591,0,66.260664965554099,0,123.60904402002883,0,-10.985208653905055,0,221.40579956720347,3.9712441826958536,11.687412070622589,1.9741197585880932,1.5717479963665111,1.1671368432517570,0.92425561096143227,-991.10331448719546,-1.9170554393545487E-002,103.89416414685758,189.95166740460695,227.32363155052201,284.58221149782162,93.304829456163191,65.395333333333326,23.431666666666672,9.9491617487291499,24.371487007141070,0.36288688435763988